Location: Stanford
(52.2833°N, 2.4333°W)
Time: 01:34:08
(UTC+00:00)

CZ-2C R/B - Pass Details

Date: 22 January 2021
Orbit: 785 x 870 km, 98.2° (Epoch: 28 February)

Event Time Altitude Azimuth Distance (km) Brightness Sun altitude
Exits shadow 18:49:01 33° 106° (ESE) 1,428 3.4 -19.5°
Drops below altitude 10° 18:53:28 10° 158° (SSE) 2,507 5.0 -20.1°
Sets 18:56:05 0° 168° (SSE) 3,444 5.8 -20.5°
